This is the latest recevied weather packets stored in our database for station/object KB9ZI. If no packets are shown the sender has not sent any weather packets the latest 10 day(s).
| Time | Temp. | Humidity | Pressure | Rain* | Wind** | Luminosity | Snow |
|---|---|---|---|---|---|---|---|
| 1778088605 | 5.56° C | 61% | 1016.8 hPa | 0 mm | - | - | - |
| 1778088485 | 5.56° C | 61% | 1016.6 hPa | 0 mm | - | - | - |
| 1778088369 | 5° C | 61% | 1016.7 hPa | 0 mm | - | - | - |
| 1778088258 | 5° C | 61% | 1016.8 hPa | 0 mm | - | - | - |
| 1778088129 | 5° C | 61% | 1016.7 hPa | 0 mm | - | - | - |
| 1778088010 | 5° C | 60% | 1016.7 hPa | 0 mm | - | - | - |
| 1778087889 | 5° C | 60% | 1016.8 hPa | 0 mm | - | - | - |
| 1778087829 | 5° C | 59% | 1016.8 hPa | 0 mm | - | - | - |
| 1778087654 | 5° C | 60% | 1016.8 hPa | 0 mm | - | - | - |
| 1778087528 | 5° C | 60% | 1016.8 hPa | 0 mm | - | - | - |
| 1778087409 | 5° C | 60% | 1016.8 hPa | 0 mm | - | - | - |
| 1778087288 | 5° C | 60% | 1016.8 hPa | 0 mm | - | - | - |
| 1778087168 | 5° C | 60% | 1016.8 hPa | 0 mm | - | - | - |
| 1778087054 | 5° C | 61% | 1016.8 hPa | 0 mm | - | - | - |
| 1778086928 | 5° C | 61% | 1016.8 hPa | 0 mm | - | - | - |
| 1778086873 | 5° C | 64% | 1016.8 hPa | 0 mm | - | - | - |
| 1778086685 | 5° C | 59% | 1016.8 hPa | 0 mm | - | - | - |
| 1778086568 | 5° C | 61% | 1016.9 hPa | 0 mm | - | - | - |
| 1778086454 | 5° C | 62% | 1016.9 hPa | 0 mm | - | - | - |
| 1778086325 | 5° C | 61% | 1016.8 hPa | 0 mm | - | - | - |
| 1778086209 | 5° C | 60% | 1016.9 hPa | 0 mm | - | - | - |
| 1778086089 | 5° C | 60% | 1016.9 hPa | 0 mm | - | - | - |
| 1778086007 | 5° C | 60% | 1016.8 hPa | 0 mm | - | - | - |
| 1778085983 | 5° C | 60% | 1016.9 hPa | 0 mm | - | - | - |
| 1778085788 | 5° C | 61% | 1016.9 hPa | 0 mm | - | - | - |
* Rain latest hour (hover to see other rain measurements)
** Current wind speed in m/s (hover to see current wind gust speed)